| time (UTC) | temp C | wind direction | speed KPH | gust KPH | rain 1hr cm | rain 24hr cm | rain mn cm | humidity % | barometer mb |
| 20260506135517 | 14 | 0.0 | 0.0 | 0.00 | 0.00 | 0.00 | 86 | 1018.1 | |
| 20260506134517 | 14 | 0.0 | 0.0 | 0.00 | 0.00 | 0.00 | 86 | 1018.0 | |
| 20260506133517 | 13 | 0.0 | 0.0 | 0.00 | 0.00 | 0.00 | 86 | 1017.9 | |
| 20260506132517 | 13 | 0.0 | 0.0 | 0.00 | 0.00 | 0.00 | 87 | 1017.8 | |
| 20260506131516 | 14 | 0.0 | 0.0 | 0.00 | 0.00 | 0.00 | 87 | 1017.8 | |
| 20260506130517 | 14 | 0.0 | 0.0 | 0.00 | 0.00 | 0.00 | 87 | 1017.7 | |
| 20260506125517 | 14 | 0.0 | 0.0 | 0.00 | 0.00 | 0.00 | 87 | 1017.6 | |
| 20260506124516 | 14 | 0.0 | 0.0 | 0.00 | 0.00 | 0.00 | 86 | 1017.7 | |
| 20260506123517 | 14 | 0.0 | 0.0 | 0.00 | 0.00 | 0.00 | 86 | 1017.6 | |
| 20260506122517 | 14 | 0.0 | 0.0 | 0.00 | 0.00 | 0.00 | 86 | 1017.5 | |
| 20260506121517 | 14 | 0.0 | 0.0 | 0.00 | 0.00 | 0.00 | 86 | 1017.5 | |
| 20260506120517 | 14 | 0.0 | 0.0 | 0.00 | 0.00 | 0.00 | 85 | 1017.4 | |
| 20260506115516 | 14 | 0.0 | 0.0 | 0.00 | 0.00 | 0.00 | 85 | 1017.4 | |
| 20260506114517 | 14 | 0.0 | 0.0 | 0.00 | 0.00 | 0.00 | 85 | 1017.3 | |
| 20260506113516 | 14 | 0.0 | 0.0 | 0.00 | 0.00 | 0.00 | 85 | 1017.3 | |
| 20260506112517 | 14 | 0.0 | 0.0 | 0.00 | 0.00 | 0.00 | 85 | 1017.2 | |
| 20260506111517 | 15 | 0.0 | 0.0 | 0.00 | 0.00 | 0.00 | 85 | 1017.1 | |
| 20260506110516 | 14 | 0.0 | 0.0 | 0.00 | 0.00 | 0.00 | 85 | 1017.1 | |
| 20260506105517 | 14 | 0.0 | 0.0 | 0.00 | 0.00 | 0.00 | 85 | 1016.9 | |
| 20260506104517 | 14 | 0.0 | 0.0 | 0.00 | 0.00 | 0.00 | 85 | 1016.9 | |
| 20260506103516 | 14 | 0.0 | 0.0 | 0.00 | 0.00 | 0.00 | 85 | 1016.7 | |
| 20260506102516 | 14 | 0.0 | 0.0 | 0.00 | 0.00 | 0.00 | 85 | 1016.7 | |
| 20260506101516 | 14 | 0.0 | 0.0 | 0.00 | 0.00 | 0.00 | 85 | 1016.5 | |
| 20260506100516 | 15 | 0.0 | 0.0 | 0.00 | 0.00 | 0.00 | 85 | 1016.5 | |
| 20260506095516 | 15 | 0.0 | 0.0 | 0.00 | 0.00 | 0.00 | 85 | 1016.5 | |
| 20260506094516 | 15 | 0.0 | 0.0 | 0.00 | 0.00 | 0.00 | 84 | 1016.5 | |
| 20260506093516 | 15 | 0.0 | 0.0 | 0.00 | 0.00 | 0.00 | 84 | 1016.5 | |
| 20260506092516 | 15 | 0.0 | 1.6 | 0.00 | 0.00 | 0.00 | 84 | 1016.5 | |
| 20260506091516 | 15 | 0.0 | 1.6 | 0.00 | 0.00 | 0.00 | 84 | 1016.6 | |
| 20260506090516 | 15 | 0.0 | 1.6 | 0.00 | 0.00 | 0.00 | 84 | 1016.6 | |
| 20260506085516 | 15 | 0.0 | 1.6 | 0.00 | 0.00 | 0.00 | 84 | 1016.5 | |
| 20260506084516 | 15 | 0.0 | 1.6 | 0.00 | 0.00 | 0.00 | 84 | 1016.5 | |
| 20260506083516 | 15 | 0.0 | 0.0 | 0.00 | 0.00 | 0.00 | 84 | 1016.5 | |
| 20260506082516 | 15 | 0.0 | 1.6 | 0.00 | 0.00 | 0.00 | 83 | 1016.6 | |
| 20260506081516 | 15 | 0.0 | 1.6 | 0.00 | 0.00 | 0.00 | 83 | 1016.6 | |
| 20260506080516 | 15 | 0.0 | 1.6 | 0.00 | 0.00 | 0.00 | 83 | 1016.5 | |
| 20260506073516 | 15 | 0.0 | 0.0 | 0.00 | 0.03 | 0.00 | 81 | 1016.3 | |
| 20260506072516 | 15 | 0.0 | 0.0 | 0.00 | 0.05 | 0.00 | 81 | 1016.1 | |
| 20260506071516 | 15 | 0.0 | 0.0 | 0.00 | 0.08 | 0.00 | 81 | 1016.0 | |
| 20260506070516 | 15 | 0.0 | 0.0 | 0.00 | 0.13 | 0.00 | 81 | 1015.8 | |
| 20260506062517 | 15 | 0.0 | 1.6 | 0.00 | 0.18 | 0.13 | 80 | 1015.7 | |
| 20260506061517 | 15 | 0.0 | 0.0 | 0.00 | 0.18 | 0.13 | 80 | 1015.5 | |
| 20260506060517 | 15 | 0.0 | 1.6 | 0.00 | 0.18 | 0.13 | 80 | 1015.4 | |
| 20260506050517 | 16 | 0.0 | 3.2 | 0.00 | 0.36 | 0.13 | 79 | 1015.1 | |
| 20260506044516 | 16 | 203 | 1.6 | 3.2 | 0.00 | 0.43 | 0.13 | 78 | 1014.5 |
| 20260506043516 | 16 | 158 | 1.6 | 3.2 | 0.00 | 0.46 | 0.13 | 78 | 1014.4 |
| 20260506042516 | 16 | 0.0 | 1.6 | 0.00 | 0.51 | 0.13 | 78 | 1014.3 | |
| 20260506041516 | 16 | 203 | 1.6 | 4.8 | 0.00 | 0.53 | 0.13 | 78 | 1014.2 |
| 20260506040517 | 16 | 203 | 1.6 | 3.2 | 0.00 | 0.58 | 0.13 | 78 | 1014.1 |
| 20260506035516 | 16 | 203 | 1.6 | 4.8 | 0.00 | 0.66 | 0.13 | 78 | 1014.1 |
| 20260506034516 | 16 | 203 | 1.6 | 3.2 | 0.00 | 0.71 | 0.13 | 77 | 1014.0 |
| 20260506033516 | 16 | 203 | 1.6 | 3.2 | 0.00 | 0.84 | 0.13 | 77 | 1014.1 |
| 20260506032516 | 16 | 180 | 1.6 | 3.2 | 0.00 | 0.91 | 0.13 | 76 | 1013.8 |
| 20260506031517 | 16 | 180 | 1.6 | 3.2 | 0.00 | 0.99 | 0.13 | 76 | 1013.6 |
| 20260506030516 | 17 | 203 | 1.6 | 3.2 | 0.00 | 1.04 | 0.13 | 76 | 1013.6 |
| 20260506025516 | 17 | 203 | 3.2 | 4.8 | 0.00 | 1.07 | 0.13 | 75 | 1013.3 |
| 20260506024516 | 17 | 180 | 1.6 | 4.8 | 0.00 | 1.07 | 0.13 | 74 | 1013.3 |
| 20260506023516 | 17 | 203 | 1.6 | 3.2 | 0.00 | 1.09 | 0.13 | 74 | 1013.2 |
| 20260506022516 | 17 | 203 | 3.2 | 4.8 | 0.00 | 1.12 | 0.13 | 72 | 1013.0 |
| 20260506021516 | 17 | 203 | 1.6 | 4.8 | 0.00 | 1.14 | 0.13 | 72 | 1013.0 |
| 20260506020516 | 18 | 180 | 1.6 | 3.2 | 0.00 | 1.22 | 0.13 | 73 | 1013.0 |
| 20260506015516 | 18 | 203 | 3.2 | 6.4 | 0.00 | 1.30 | 0.13 | 71 | 1012.9 |
| 20260506014516 | 18 | 203 | 3.2 | 4.8 | 0.00 | 1.35 | 0.13 | 71 | 1013.0 |
| 20260506013516 | 18 | 203 | 3.2 | 4.8 | 0.00 | 1.37 | 0.13 | 71 | 1012.8 |
| 20260506012516 | 18 | 203 | 3.2 | 6.4 | 0.00 | 1.42 | 0.13 | 70 | 1012.9 |
| 20260506011516 | 18 | 180 | 3.2 | 6.4 | 0.00 | 1.47 | 0.13 | 70 | 1012.8 |
| 20260506010516 | 18 | 135 | 3.2 | 4.8 | 0.00 | 1.52 | 0.13 | 70 | 1012.7 |
| 20260506005516 | 18 | 158 | 1.6 | 3.2 | 0.00 | 1.55 | 0.13 | 70 | 1012.8 |
| 20260506004516 | 18 | 225 | 1.6 | 4.8 | 0.00 | 1.55 | 0.13 | 69 | 1012.7 |
| 20260506003516 | 18 | 225 | 1.6 | 4.8 | 0.00 | 1.57 | 0.13 | 68 | 1012.7 |
| 20260506002516 | 18 | 135 | 1.6 | 3.2 | 0.00 | 1.57 | 0.13 | 67 | 1012.7 |
| 20260506001516 | 19 | 180 | 1.6 | 4.8 | 0.00 | 1.57 | 0.13 | 67 | 1012.8 |
| 20260506000516 | 19 | 135 | 1.6 | 3.2 | 0.00 | 1.57 | 0.13 | 67 | 1012.7 |
| 20260505235516 | 19 | 135 | 1.6 | 4.8 | 0.00 | 1.57 | 0.13 | 67 | 1012.7 |
| 20260505234516 | 19 | 225 | 1.6 | 3.2 | 0.00 | 1.60 | 0.13 | 67 | 1012.6 |
| 20260505233516 | 19 | 113 | 1.6 | 3.2 | 0.00 | 1.63 | 0.13 | 68 | 1012.6 |
| 20260505232516 | 19 | 113 | 1.6 | 3.2 | 0.00 | 1.65 | 0.13 | 66 | 1012.6 |
| 20260505231516 | 20 | 135 | 1.6 | 3.2 | 0.00 | 1.65 | 0.13 | 67 | 1012.7 |
| 20260505230516 | 20 | 0.0 | 3.2 | 0.00 | 1.68 | 0.13 | 64 | 1012.7 | |
| 20260505225516 | 20 | 0.0 | 3.2 | 0.00 | 1.68 | 0.13 | 66 | 1012.8 | |
| 20260505224516 | 19 | 135 | 1.6 | 3.2 | 0.00 | 1.70 | 0.13 | 66 | 1012.9 |
| 20260505223516 | 19 | 135 | 1.6 | 3.2 | 0.00 | 1.70 | 0.13 | 68 | 1012.9 |
| 20260505222516 | 19 | 135 | 1.6 | 4.8 | 0.00 | 1.70 | 0.13 | 68 | 1013.0 |
| 20260505221516 | 21 | 0.0 | 3.2 | 0.00 | 1.73 | 0.13 | 66 | 1013.2 | |
| 20260505220516 | 20 | 0.0 | 1.6 | 0.00 | 1.73 | 0.13 | 66 | 1013.3 | |
| 20260505215516 | 18 | 0.0 | 1.6 | 0.00 | 1.75 | 0.13 | 67 | 1013.4 | |
| 20260505214516 | 18 | 0.0 | 1.6 | 0.00 | 1.78 | 0.13 | 68 | 1013.5 | |
| 20260505213516 | 18 | 0.0 | 1.6 | 0.00 | 1.78 | 0.13 | 70 | 1013.5 | |
| 20260505212516 | 18 | 0.0 | 1.6 | 0.00 | 1.78 | 0.13 | 69 | 1013.6 | |
| 20260505211515 | 18 | 113 | 1.6 | 4.8 | 0.00 | 1.78 | 0.13 | 69 | 1013.7 |
| 20260505210516 | 18 | 0.0 | 1.6 | 0.00 | 1.80 | 0.13 | 69 | 1013.8 | |
| 20260505205516 | 18 | 113 | 1.6 | 4.8 | 0.00 | 1.80 | 0.13 | 70 | 1013.7 |
| 20260505204516 | 18 | 0.0 | 1.6 | 0.00 | 1.80 | 0.13 | 70 | 1013.8 | |
| 20260505202515 | 18 | 0.0 | 1.6 | 0.00 | 1.80 | 0.13 | 69 | 1013.7 | |
| 20260505201515 | 17 | 0.0 | 1.6 | 0.00 | 1.80 | 0.13 | 71 | 1014.0 | |
| 20260505200516 | 17 | 0.0 | 3.2 | 0.00 | 1.80 | 0.13 | 71 | 1014.1 | |
| 20260505195516 | 17 | 0.0 | 1.6 | 0.00 | 1.80 | 0.13 | 70 | 1014.0 | |
| 20260505194516 | 17 | 0.0 | 0.0 | 0.00 | 1.80 | 0.13 | 74 | 1014.0 | |
| 20260505193516 | 16 | 0.0 | 1.6 | 0.00 | 1.80 | 0.13 | 76 | 1014.1 | |
| 20260505192516 | 16 | 0.0 | 1.6 | 0.00 | 1.80 | 0.13 | 75 | 1014.2 | |
| 20260505191516 | 16 | 0.0 | 1.6 | 0.00 | 1.83 | 0.13 | 76 | 1014.2 | |
| 20260505190516 | 16 | 0.0 | 1.6 | 0.00 | 1.83 | 0.13 | 77 | 1014.1 | |
| 20260505185516 | 16 | 0.0 | 1.6 | 0.00 | 1.83 | 0.13 | 78 | 1014.2 | |
| 20260505184516 | 15 | 0.0 | 1.6 | 0.00 | 1.83 | 0.13 | 81 | 1014.1 | |
| 20260505183518 | 15 | 0.0 | 3.2 | 0.00 | 1.83 | 0.13 | 80 | 1014.1 | |
| 20260505182517 | 15 | 0.0 | 1.6 | 0.00 | 1.83 | 0.13 | 82 | 1014.0 | |
| 20260505181517 | 15 | 0.0 | 0.0 | 0.00 | 1.83 | 0.13 | 83 | 1014.0 | |
| 20260505180517 | 15 | 338 | 1.6 | 4.8 | 0.00 | 1.83 | 0.13 | 82 | 1013.8 |
| 20260505175517 | 15 | 0.0 | 1.6 | 0.00 | 1.83 | 0.13 | 83 | 1013.9 | |
| 20260505174518 | 15 | 0.0 | 3.2 | 0.00 | 1.83 | 0.13 | 83 | 1013.8 | |
| 20260505173518 | 14 | 0.0 | 1.6 | 0.00 | 1.83 | 0.13 | 85 | 1013.8 | |
| 20260505172517 | 14 | 0.0 | 3.2 | 0.00 | 1.83 | 0.13 | 85 | 1013.8 | |
| 20260505171517 | 13 | 0.0 | 3.2 | 0.00 | 1.83 | 0.13 | 86 | 1013.7 | |
| 20260505170517 | 13 | 0.0 | 1.6 | 0.00 | 1.83 | 0.13 | 88 | 1013.7 | |
| 20260505165517 | 13 | 0 | 1.6 | 4.8 | 0.00 | 1.83 | 0.13 | 87 | 1013.8 |
| 20260505164517 | 13 | 0.0 | 3.2 | 0.00 | 1.83 | 0.13 | 88 | 1013.6 | |
| 20260505163517 | 13 | 0.0 | 1.6 | 0.00 | 1.83 | 0.13 | 90 | 1013.6 | |
| 20260505162517 | 13 | 0.0 | 1.6 | 0.00 | 1.83 | 0.13 | 91 | 1013.6 | |
| 20260505161517 | 13 | 0.0 | 3.2 | 0.00 | 1.83 | 0.13 | 91 | 1013.4 | |
| 20260505160517 | 12 | 0.0 | 1.6 | 0.00 | 1.83 | 0.13 | 91 | 1013.3 | |
| 20260505152517 | 12 | 0.0 | 1.6 | 0.00 | 1.83 | 0.13 | 92 | 1013.1 | |
| 20260505151517 | 12 | 0.0 | 1.6 | 0.00 | 1.83 | 0.13 | 92 | 1013.1 | |
| 20260505150517 | 12 | 0.0 | 1.6 | 0.00 | 1.83 | 0.13 | 92 | 1012.9 | |
| 20260505140518 | 12 | 0.0 | 1.6 | 0.00 | 1.83 | 0.13 | 92 | 1012.4 |